Find Feng Yun 3D

NORAD ID: 43010 Int'l Des: 2017-072 Owner: NSMC Country: CN operational
LEOCIRCULARRETROGRADESSO

Current View

Loading 3D Globe...

About Feng Yun 3D

Description loading...

Upcoming Passes

Passes for default location (London). Set your location on the main map for personalized predictions.

Altitude History

Loading altitude history...

Two-Line Element Set

1 43010U 17072A 26150.17626329 .00000261 00000-0 14506-3 0 9993
2 43010 99.0112 124.2740 0002593 92.7621 267.3851 14.19736182442439
Epoch: May 30, 2026 • Age: 7 hours

Current Status

Altitude 848.4 km
Velocity 7.43 km/s
Sub-Earth Point -53.26°S, 87.66°E
Launch Date Nov 14, 2017
Age 8.5 years
Type other

Technical Details

Classification Payload
Mass 2450.00 kg
Dry Mass 2250.00 kg
Total Mass 2450.00 kg
Length 4.40 m
Diameter 2.00 m
Span 10.00 m
Shape Box + 2 Pan
Manufacturer SISE
Bus Type FY-3
Phase Status In Orbit
Owner/State NSMC/CN

Most Searched